STARLINK-35154

Last updated on Tue Oct 14 2025 00:02:05 GMT+0000 (Coordinated Universal Time)

1 65612U 25207W 25286.43685222 .00054614 00000+0 10004-2 0 9997 2 65612 97.6042 349.9435 0004456 116.6721 243.4986 15.49135936 5715

Satellite not in orbit

STARLINK-35154